Overview Statistics Trail Chart Weather Telemetry Raw packets
 

This is the latest recevied weather packets stored in our database for station/object K6GMW. If no packets are shown the sender has not sent any weather packets the latest 10 day(s).

<< 1 2 3 4 5 6 7 >>
Time Temp. Humidity Pressure Rain* Wind** Luminosity Snow
1788618189 30° C 67% 1016 hPa 0 mm - 443 W/m² -
1788617886 30° C 69% 1015.9 hPa 0 mm - 425 W/m² -
1788617581 30° C 70% 1015.8 hPa 0 mm - 405 W/m² -
1788617297 28.89° C 73% 1015.7 hPa 0 mm - 383 W/m² -
1788616976 28.89° C 74% 1015.9 hPa 0 mm - 362 W/m² -
1788616675 28.33° C 76% 1015.9 hPa 0 mm - 344 W/m² -
1788616371 27.22° C 80% 1015.9 hPa 0 mm - 317 W/m² -
1788616071 26.11° C 84% 1015.8 hPa 0 mm - 293 W/m² -
1788615771 25.56° C 86% 1015.9 hPa 0 mm - 107 W/m² -
1788615465 25° C 88% 1016.2 hPa 0 mm - 98 W/m² -
1788615161 24.44° C 89% 1016 hPa 0 mm - 78 W/m² -
1788614859 24.44° C 89% 1015.9 hPa 0 mm - 67 W/m² -
1788614555 24.44° C 90% 1015.8 hPa 0 mm - 61 W/m² -
1788614250 23.89° C 90% 1015.8 hPa 0 mm - 55 W/m² -
1788613946 23.89° C 90% 1015.9 hPa 0 mm - 50 W/m² -
1788613640 23.89° C 90% 1015.8 hPa 0 mm - 46 W/m² -
1788613339 23.89° C 90% 1015.7 hPa 0 mm - 43 W/m² -
1788613035 23.89° C 90% 1015.5 hPa 0 mm - 41 W/m² -
1788612730 23.89° C 90% 1015.6 hPa 0 mm - 39 W/m² -
1788612433 23.33° C 90% 1015.5 hPa 0 mm - 35 W/m² -
1788612122 23.33° C 90% 1015.5 hPa 0 mm - 32 W/m² -
1788611822 23.33° C 91% 1015.5 hPa 0 mm - 29 W/m² -
1788611519 23.33° C 91% 1015.5 hPa 0 mm - 25 W/m² -
1788611219 23.33° C 91% 1015.6 hPa 0 mm - 23 W/m² -
1788610914 23.33° C 91% 1015.5 hPa 0 mm - 20 W/m² -

* Rain latest hour (hover to see other rain measurements)
** Current wind speed in m/s (hover to see current wind gust speed)